Location: Newark
(9.4667°S, 159.8167°E)
Time: 22:55:40
(UTC+00:00)

Courier 1B Rocket - Pass Details

Date: 21 November 2019
Orbit: 920 x 1202 km, 28.2° (Epoch: 07 December)

Event Time Altitude Azimuth Distance (km) Brightness Sun altitude
Rises 11:17:27 0° 314° (NW) 4,086 - -50.2°
Reaches altitude 10° 11:20:28 10° 320° (NW) 3,121 - -50.7°
Maximum altitude 11:27:51 46° 30° (NNE) 1,535 - -51.9°
Drops below altitude 10° 11:34:58 10° 101° (E) 3,017 - -53.0°
Sets 11:37:49 0° 107° (ESE) 3,940 - -53.4°
